DW9246 Weather Reports


Display with metric or nautical units.
time (UTC)temp
F
wind
direction
speed
MPH
gust
MPH
rain 1hr
in
rain 24hr
in
rain mn
in
humidity
%
barometer
mb
20180621104022 82 182 5.0 10.0 0.00 0.00 0.00 40 1018.9
20180621103022 82 187 4.0 12.0 0.00 0.00 0.00 42 1018.8
20180621102022 82 200 3.0 9.0 0.00 0.00 0.00 43 1019.0
20180621101023 81 190 6.0 12.0 0.00 0.00 0.00 45 1018.8
20180621100023 82 203 5.0 12.0 0.00 0.00 0.00 47 1018.8
20180621095023 81 193 6.0 11.0 0.00 0.00 0.00 48 1018.9
20180621094023 82 168 4.0 9.0 0.00 0.00 0.00 48 1018.8
20180621093023 82 170 5.0 10.0 0.00 0.00 0.00 44 1018.8
20180621092023 82 184 3.0 9.0 0.00 0.00 0.00 41 1018.8
20180621091023 81 190 5.0 10.0 0.00 0.00 0.00 40 1018.7
20180621085023 82 164 3.0 8.0 0.00 0.00 0.00 37 1018.8
20180621084022 81 171 3.0 8.0 0.00 0.00 0.00 39 1018.8
20180621083023 80 200 3.0 7.0 0.00 0.00 0.00 43 1018.8
20180621082022 80 184 4.0 8.0 0.00 0.00 0.00 43 1018.9
20180621081023 79 188 4.0 10.0 0.00 0.00 0.00 45 1018.9
20180621080024 78 208 4.0 10.0 0.00 0.00 0.00 47 1018.9
20180621075023 78 201 3.0 10.0 0.00 0.00 0.00 48 1019.0
20180621074035 78 201 3.0 8.0 0.00 0.00 0.00 49 1019.1
20180621073023 77 200 2.0 5.0 0.00 0.00 0.00 49 1019.1
20180621072023 77 191 2.0 5.0 0.00 0.00 0.00 51 1019.1
20180621071057 76 209 1.0 4.0 0.00 0.00 0.00 50 1019.1
20180621070023 76 168 1.0 3.0 0.00 0.00 0.00 55 1019.1
20180621065024 76 0 0.0 0.0 0.00 0.00 0.00 53 1019.1
20180621064035 75 0 0.0 0.0 0.00 0.00 0.00 55 1019.1
20180621063025 75 0 0.0 0.0 0.00 0.00 0.00 55 1019.0
20180621062022 75 0 0.0 0.0 0.00 0.00 0.00 57 1018.9
20180621061023 74 101 0.0 1.0 0.00 0.00 0.00 59 1018.9
20180621060026 72 0 0.0 0.0 0.00 0.00 0.00 60 1018.8
20180621055024 70 0 0.0 0.0 0.00 0.00 0.00 62 1018.8
20180621054029 69 0 0.0 0.0 0.00 0.00 0.00 64 1018.7
20180621053031 69 0 0.0 0.0 0.00 0.00 0.00 64 1018.6
20180621052023 68 0 0.0 0.0 0.00 0.00 0.00 63 1018.5
20180621051023 67 0 0.0 0.0 0.00 0.00 0.00 64 1018.5
20180621050024 66 0 0.0 0.0 0.00 0.00 0.00 65 1018.5
20180621045035 66 0 0.0 0.0 0.00 0.00 0.00 65 1018.5
20180621044024 66 0 0.0 0.0 0.00 0.00 0.00 67 1018.5
20180621043023 66 330 0.0 3.0 0.00 0.00 0.00 66 1018.4
20180621042034 67 0 0.0 0.0 0.00 0.00 0.00 66 1018.4
20180621041023 66 0 0.0 0.0 0.00 0.00 0.00 66 1018.3
20180621040024 67 0 0.0 0.0 0.00 0.00 0.00 66 1018.4
20180621035036 67 326 0.0 3.0 0.00 0.00 0.00 66 1018.3
20180621034023 67 322 0.0 1.0 0.00 0.00 0.00 66 1018.4
20180621033022 67 329 0.0 3.0 0.00 0.00 0.00 65 1018.5
20180621032024 67 0 0.0 0.0 0.00 0.00 0.00 65 1018.6
20180621031023 66 0 0.0 0.0 0.00 0.00 0.00 66 1018.8
20180621030035 67 0 0.0 0.0 0.00 0.00 0.00 65 1018.8
20180621025023 67 0 0.0 0.0 0.00 0.00 0.00 64 1018.9
20180621024023 67 0 0.0 0.0 0.00 0.00 0.00 64 1018.8
20180621023022 67 0 0.0 0.0 0.00 0.00 0.00 65 1018.9
20180621022027 67 328 0.0 4.0 0.00 0.00 0.00 64 1018.9
20180621021022 67 0 0.0 0.0 0.00 0.00 0.00 64 1019.1
20180621020022 67 339 1.0 4.0 0.00 0.00 0.00 63 1019.2
20180621015021 67 0 0.0 0.0 0.00 0.00 0.00 63 1019.3
20180621014022 67 0 0.0 0.0 0.00 0.00 0.00 62 1019.3
20180621013022 67 0 0.0 0.0 0.00 0.00 0.00 62 1019.5
20180621012022 67 0 0.0 0.0 0.00 0.00 0.00 62 1019.4
20180621011029 67 0 0.0 0.0 0.00 0.00 0.00 62 1019.4
20180621010023 67 0 0.0 0.0 0.00 0.00 0.00 63 1019.6
20180621005022 67 0 0.0 0.0 0.00 0.00 0.00 62 1019.6
20180621004023 67 0 0.0 0.0 0.00 0.00 0.00 63 1019.6
20180621003020 67 0 0.0 0.0 0.00 0.00 0.00 62 1019.6
20180621002032 67 0 0.0 0.0 0.00 0.00 0.00 63 1019.6
20180621001022 67 0 0.0 0.0 0.00 0.00 0.00 64 1019.7
20180621000026 67 324 0.0 6.0 0.00 0.00 0.00 65 1019.7
20180620235021 67 0 0.0 0.0 0.00 0.00 0.00 66 1019.7
20180620234020 67 331 0.0 3.0 0.00 0.00 0.00 67 1019.7
20180620233020 67 0 0.0 0.0 0.00 0.00 0.00 68 1019.8
20180620232030 67 0 0.0 0.0 0.00 0.00 0.00 69 1019.8
20180620231021 67 0 0.0 0.0 0.00 0.00 0.00 69 1019.8
20180620230020 67 0 0.0 0.0 0.00 0.00 0.00 70 1020.1
20180620225021 67 0 0.0 0.0 0.00 0.00 0.00 70 1020.1
20180620224021 67 0 0.0 0.0 0.00 0.00 0.00 69 1020.1
20180620223031 67 0 0.0 0.0 0.00 0.00 0.00 70 1020.0
20180620222021 68 0 0.0 0.0 0.00 0.00 0.00 68 1020.1
20180620221020 68 332 0.0 2.0 0.00 0.00 0.00 67 1020.1
20180620220021 67 0 0.0 0.0 0.00 0.00 0.00 66 1020.1
20180620215021 68 0 0.0 0.0 0.00 0.00 0.00 65 1020.2
20180620214022 68 0 0.0 0.0 0.00 0.00 0.00 66 1020.2
20180620213022 68 0 0.0 0.0 0.00 0.00 0.00 66 1020.2
20180620212020 69 0 0.0 0.0 0.00 0.00 0.00 66 1020.1
20180620211104 69 0 0.0 0.0 0.00 0.00 0.00 67 1020.2
20180620210022 69 323 1.0 6.0 0.00 0.00 0.00 68 1020.1
20180620205023 69 320 0.0 4.0 0.00 0.00 0.00 68 1020.1
20180620184023 77 214 2.0 5.0 0.00 0.00 0.00 55 1019.1
20180620183024 77 211 3.0 6.0 0.00 0.00 0.00 54 1019.0
20180620182022 78 201 4.0 8.0 0.00 0.00 0.00 53 1019.0
20180620181026 78 196 4.0 9.0 0.00 0.00 0.00 51 1019.1
20180620180022 78 196 4.0 9.0 0.00 0.00 0.00 50 1019.0
20180620175022 79 204 3.0 8.0 0.00 0.00 0.00 50 1019.0
20180620174022 80 203 3.0 8.0 0.00 0.00 0.00 50 1019.1
20180620173022 80 226 4.0 8.0 0.00 0.00 0.00 47 1019.1
20180620172024 80 201 4.0 9.0 0.00 0.00 0.00 47 1019.0
20180620171020 81 200 4.0 9.0 0.00 0.00 0.00 46 1019.0
20180620170020 81 219 4.0 10.0 0.00 0.00 0.00 46 1019.0
20180620165021 81 192 4.0 12.0 0.00 0.00 0.00 46 1019.0
20180620164020 81 183 5.0 10.0 0.00 0.00 0.00 47 1019.0
20180620163021 82 178 3.0 8.0 0.00 0.00 0.00 44 1019.1
20180620162032 81 155 4.0 9.0 0.00 0.00 0.00 45 1019.2
20180620161020 82 174 3.0 9.0 0.00 0.00 0.00 47 1019.2
20180620160033 81 171 3.0 9.0 0.00 0.00 0.00 45 1019.2
20180620155020 81 153 5.0 10.0 0.00 0.00 0.00 46 1019.4
20180620154021 80 155 5.0 12.0 0.00 0.00 0.00 49 1019.2
20180620153033 81 170 5.0 11.0 0.00 0.00 0.00 51 1019.4
20180620152019 81 163 6.0 12.0 0.00 0.00 0.00 51 1019.4
20180620151021 81 174 7.0 12.0 0.00 0.00 0.00 48 1019.4
20180620150022 81 155 5.0 11.0 0.00 0.00 0.00 47 1019.5
20180620145021 81 141 5.0 10.0 0.00 0.00 0.00 53 1019.5
20180620144023 82 143 5.0 11.0 0.00 0.00 0.00 48 1019.4
20180620143033 82 150 5.0 11.0 0.00 0.00 0.00 47 1019.5
20180620142022 82 148 6.0 13.0 0.00 0.00 0.00 47 1019.5
20180620141021 81 150 6.0 13.0 0.00 0.00 0.00 47 1019.6
20180620140022 82 140 6.0 12.0 0.00 0.00 0.00 47 1019.7
20180620135022 81 152 7.0 14.0 0.00 0.00 0.00 48 1019.6
20180620134022 81 142 8.0 16.0 0.00 0.00 0.00 48 1019.7
20180620133024 83 154 5.0 13.0 0.00 0.00 0.00 47 1019.8
20180620132034 82 134 6.0 14.0 0.00 0.00 0.00 45 1019.7
20180620131022 82 137 5.0 11.0 0.00 0.00 0.00 46 1019.8
20180620130022 82 150 5.0 12.0 0.00 0.00 0.00 46 1019.8
20180620125035 82 155 6.0 12.0 0.00 0.00 0.00 46 1019.8
20180620124021 82 128 5.0 10.0 0.00 0.00 0.00 46 1019.9
20180620123020 81 141 5.0 12.0 0.00 0.00 0.00 46 1020.1
20180620122029 82 153 5.0 12.0 0.00 0.00 0.00 46 1020.1
20180620121020 82 152 6.0 12.0 0.00 0.00 0.00 46 1020.1
20180620120021 82 140 6.0 13.0 0.00 0.00 0.00 48 1020.2
20180620115021 81 165 7.0 16.0 0.00 0.00 0.00 49 1020.3
20180620114021 80 162 7.0 14.0 0.00 0.00 0.00 53 1020.4
20180620113020 81 171 7.0 15.0 0.00 0.00 0.00 53 1020.4
20180620112022 81 192 5.0 12.0 0.00 0.00 0.00 54 1020.3
20180620111021 81 169 7.0 13.0 0.00 0.00 0.00 53 1020.5
20180620110033 81 163 6.0 13.0 0.00 0.00 0.00 52 1020.5
20180620105021 81 157 5.0 12.0 0.00 0.00 0.00 50 1020.6